User: anonymous   Login
Location: Table Mountain
(47.2500°N, 120.5778°W)
Time: 15:19:51
(UTC-07:00)
Language:

POLYITAN 1 - Orbit

View from above orbital plane
View from above orbital plane
View from above satellite
View from above satellite

Ground track
Ground track

The orbit data is extracted from the following two-line orbital elements,

1 40042U 14033AJ  18230.18677722  .00000271  00000-0  35215-4 0  9995
2 40042  97.9094 145.6077 0014210 336.1263  23.9293 14.88439683225935
Epoch (UTC): 18 August 2018 04:28:57
Eccentricity: 0.0014210
inclination: 97.9094°
perigee height: 593 km
apogee height: 613 km
right ascension of ascending node: 145.6077°
argument of perigee: 336.1263°
revolutions per day: 14.88439683
mean anomaly at epoch: 23.9293°
orbit number at epoch: 22593

The dashed part of the orbit path shows where the satellite is in the earth's shadow,  

DLR